Terug naar catalogus

DELTA 1 DEB

ActiefPO
NORAD 21383·DEBRIS·🇺🇸 United States

Gelanceerd Jun 12, 1975 vanaf Vandenberg Space Force Base

Loading…

Volgende Passages (komende 24 uur)

TLE

VersSource: Space-Track

Epoch: Sep 12, 2026, 02:52 UTC

1 21383U 75052DD  26255.11998328  .00000120  00000-0  56728-3 0  9991
2 21383  99.6906 135.8907 0362957 164.7496 356.4501 12.73225412639506

Volg DELTA 1 DEB in realtime met AllMySat

Download on the App Store